Retour au catalogue

THEMIS E

ActifScienceHEO
NORAD 30798·PAYLOAD·🇺🇸 United States

Lancé Feb 17, 2007 depuis Cape Canaveral Space Force Station

Loading…

Prochains Passages (prochaines 24 heures)

TLE

FraisSource: Space-Track

Époque: Sep 13, 2026, 16:34 UTC

1 30798U 07004E   26256.69042101 -.00000491  00000-0  00000-0 0  9997
2 30798   7.0899  91.4611 8418923 232.9210  15.8626  0.87839811 66698

Suivez THEMIS E en temps réel avec AllMySat

Download on the App Store